This is the latest recevied weather packets stored in our database for station/object IZ1GCT. If no packets are shown the sender has not sent any weather packets the latest 1 day(s).
| Time | Temp. | Humidity | Pressure | Rain* | Wind** | Luminosity | Snow |
|---|---|---|---|---|---|---|---|
| 1778016057 | 11.11° C | 94% | 1015.2 hPa | 0 mm | - | - | - |
| 1778015458 | 11.11° C | 94% | 1015.4 hPa | 0 mm | - | - | - |
| 1778014258 | 11.11° C | 93% | 1015.5 hPa | 0 mm | - | - | - |
| 1778013657 | 11.11° C | 92% | 1015.6 hPa | 0 mm | - | - | - |
| 1778013357 | 11.11° C | 92% | 1015.5 hPa | 0 mm | - | - | - |
| 1778012758 | 11.67° C | 92% | 1015.5 hPa | 0 mm | - | - | - |
| 1778011858 | 11.67° C | 92% | 1015.4 hPa | 0 mm | - | - | - |
| 1778011257 | 11.67° C | 92% | 1015.4 hPa | 0 mm | - | - | - |
| 1778010357 | 12.22° C | 91% | 1015.4 hPa | 0 mm | - | - | - |
| 1778007358 | 12.78° C | 83% | 1015.2 hPa | 0 mm | - | - | - |
| 1778006456 | 12.78° C | 81% | 1015 hPa | 0 mm | - | - | - |
| 1778004658 | 13.33° C | 78% | 1015 hPa | 0 mm | - | - | - |
| 1778003458 | 13.89° C | 76% | 1014.9 hPa | 0 mm | - | - | - |
| 1778003157 | 13.89° C | 75% | 1014.9 hPa | 0 mm | - | - | - |
| 1778001056 | 14.44° C | 72% | 1014.9 hPa | 0 mm | - | - | - |
| 1778000156 | 14.44° C | 72% | 1014.9 hPa | 0 mm | - | - | - |
| 1777999557 | 14.44° C | 72% | 1015 hPa | 0 mm | - | - | - |
| 1777999258 | 14.44° C | 72% | 1015.1 hPa | 0 mm | - | - | - |
| 1777998657 | 14.44° C | 72% | 1015.2 hPa | 0 mm | - | - | - |
| 1777997757 | 13.89° C | 70% | 1015.2 hPa | 0 mm | - | - | - |
| 1777997156 | 15° C | 71% | 1015 hPa | 0 mm | - | - | - |
* Rain latest hour (hover to see other rain measurements)
** Current wind speed in m/s (hover to see current wind gust speed)